www.pogodaiklimat.ru

Погода и климат >> Архив погоды >> Турция >> Газиантеп


ПОГОДА в Газиантепе

  • Прогноз погоды в Газиантепе
  • Монитор погоды в Газиантепе

АРХИВ ПОГОДЫ в Газиантепе

Время (UTC), дата Ветер
(напр.,м/с)
 
Видим.   Явления Облачность Т
(С)
Тd
(С)
f
(%)
Тe
(С)
Тes
(С)
Комфортность P
(гПа)
Po
(гПа)
Тmin
(С)
Tmax
(С)
R
(мм)
R24
(мм)
S
(см)
06 10.07 С 1
{5}
20 км ясно +29.2 +6.0 23 +28 +40 жарко 1000.8 910.1 +23.6
09 10.07 СЗ 1
{6}
20 км ясно +33.7 +4.1 16 +31 +55 опасность
солнечного
удара
999.6 909.4
12 10.07 З 2
{6}
20 км ясно +35.6 +1.9 12 +32 +48 жарко 997.9 907.8
15 10.07 С 1
{4}
20 км ясно +34.9 +3.1 14 +32 +35 жарко 997.3 907.1
18 10.07 З 1
{6}
20 км ясно +28.5 +13.2 39 +30 +30 жарко 998.1 907.7 +36.4
06 11.07 С 2
{4}
20 км ясно +30.9 +7.4 23 +30 +41 жарко 998.5 908.3 +25.1
09 11.07 З 2
{6}
20 км ясно +34.0 +7.8 20 +32 +53 опасность
солнечного
удара
998.0 908.0
12 11.07 З 2
{8}
20 км ясно +35.2 +5.1 15 +32 +47 жарко 996.4 906.7
15 11.07 З 3
{8}
20 км ясно +31.7 +12.5 31 +32 +34 жарко 996.6 906.2
18 11.07 З 4-9
{10}
20 км ясно +27.0 +12.2 40 +28 +28 жарко 997.9 907.5 +35.6
06 12.07 З 2
{6}
20 км ясно +27.6 +15.5 48 +31 +41 душно 1000.5 909.4 +22.0
09 12.07 ЮЗ 2
{7}
20 км ясно +31.3 +11.9 30 +32 +52 опасность
солнечного
удара
1000.4 909.6
12 12.07 ЮЗ 2
{9}
20 км 5/5 1200 м
[Cu hum]
+31.8 +10.0 26 +31 +39 жарко 999.6 908.7
15 12.07 ЮЗ 2
{8}
20 км ясно +30.6 +7.7 24 +30 +32 жарко 999.9 908.5
18 12.07 З 2
{8}
20 км ясно +25.1 +12.0 44 +27 +27 жарко 1000.8 909.4 +32.1
06 13.07 С 1
{5}
20 км ясно +26.8 +11.1 37 +28 +39 жарко 1002.7 911.0 +20.5
09 13.07 З 2
{5}
20 км ясно +30.5 +6.2 22 +29 +51 опасность
солнечного
удара
1002.0 910.6
12 13.07 З 2
{7}
20 км 8/5 1050 м
[Cu med, cong Ac und]
+28.0 +8.9 30 +28 +32 жарко 1002.0 910.0
15 13.07 З 2
{8}
20 км 5/5 1200 м
[Cu med, cong]
+26.3 +12.4 42 +28 +29 жарко 1002.9 910.4
18 13.07 СЗ 1
{8}
20 км ясно +23.0 +10.9 46 +25 +25 комфорт 1003.1 911.0 +31.7
06 14.07 С 1
{5}
20 км ясно +26.0 +7.9 32 +26 +39 жарко 1003.8 911.5 +19.7
09 14.07 ЮЗ 1
{4}
20 км ясно +29.5 +5.7 22 +28 +54 опасность
солнечного
удара
1002.8 911.0
12 14.07 З 2
{7}
20 км 5/5 1050 м
[Cu med, cong]
+30.2 +9.2 27 +30 +38 жарко 1001.5 909.8
15 14.07 ЮЗ 2
{7}
20 км ясно +29.2 +10.3 31 +29 +32 жарко 1001.3 909.3
18 14.07 З 2
{7}
20 км ясно +24.5 +12.8 48 +26 +26 жарко 1001.9 910.0 +31.4
06 15.07 ЮЗ 2
{5}
20 км 4/4 1200 м
[Cu hum]
+23.7 +13.7 53 +26 +32 жарко 1002.5 910.2 +18.9
09 15.07 З 2
{6}
20 км 5/5 1200 м
[Cu hum]
+27.7 +10.2 33 +28 +39 жарко 1001.9 909.9
12 15.07 З 2
{7}
20 км 5/5 1050 м
[Cu med, cong]
+30.2 +9.2 27 +30 +38 жарко 1001.5 909.8
15 15.07 З 2
{9}
20 км ясно +27.0 +10.9 37 +28 +30 жарко 1002.1 909.6
18 15.07 З 2
{9}
20 км ясно +22.9 +12.5 52 +26 +26 жарко 1003.0 910.4 +29.1
06 16.07 ЮЗ 2
{5}
20 км ясно +23.7 +13.7 53 +26 +37 жарко 1002.5 910.2 +18.9
09 16.07 З 2
{6}
20 км ясно +29.2 +6.4 24 +28 +50 жарко 1002.9 911.0
12 16.07 З 2
{6}
20 км 5/5 1200 м
[Cu hum]
+29.8 +8.9 27 +29 +36 жарко 1001.2 909.9
15 16.07 З 2
{8}
20 км ясно +29.1 +9.8 30 +29 +31 жарко 1000.7 909.3
18 16.07 З 2
{8}
20 км ясно +24.1 +11.7 46 +26 +26 жарко 1002.3 910.2 +31.5

 

Местоположение метеостанции Газиантеп (Турция): широта 37.06 долгота 37.35 высота над уровнем моря 854 м.

В архиве по умолчанию представлена погода в Газиантепе за последнюю неделю. Архивные данные за месяц целиком и за предыдущие месяцы, начиная с января 2011 года, Вы можете получить, выбрав интересующий диапазон дат из раскрывающегося списка и нажав кнопку "Ввод!".


*Определитесь, кто Вы:
робот инопланетянин человек

Внимание! Время в таблицах - всемирное. Для получения местного времени необходимо прибавить поправку, которая равна 2 ч.

Смотрите также архив погоды в соседних городах и на ближайших метеорологических станциях:

Погода в Газиантепе (Турция) (3 км)
Погода в Килисе (Турция) (43 км)
Погода в Кахраманмараше (Турция) (71 км)
Погода в Османие (Турция) (98 км)
Погода в Алеппо (Сирия) (99 км)
Погода в Адыямане (Турция) (112 км)
Погода в Искендеруне (Турция) (118 км)
Погода в Шанлыурфе (Турция) (126 км)
Погода в Аэропорту GAP (Турция) (143 км)
Погода в Эт-Телль-эль-Абьяде (Сирия) (148 км)

Пояснения к столбцам:

Ветер - указаны скорость ветра в м/с - средняя за 10 мин, порывы в срок и между сроками (в фигурных скобках) и направление, откуда дует ветер: С - северный, СВ - северо-восточный, В - восточный, ЮВ - юго-восточный, Ю - южный, ЮЗ - юго-западный, З - западный, СЗ - северо-западный.
Видимость - горизонтальная дальность видимости в метрах или километрах. При видимости от 1 до 10 км при отсутствии осадков обычно наблюдается дымка, при ухудшении видимости до 1 км и менее - туман. В сухую погоду видимость может ухудшаться дымом, пылью или мглою.
Явления - указаны атмосферные явления, наблюдавшиеся в срок или в последний час перед сроком; фигурными скобками обозначены явления, наблюдавшиеся между сроками (за 1-3 часа до срока); квадратными скобками обозначены град или гололедные отложения с указанием их диаметра в мм.
Облачность - указаны через наклонную черту общая и нижняя облачность в баллах и высота нижней границы облаков в метрах; квадратными скобками обозначены формы облаков: Ci - перистые, Cs - перисто-слоистые, Cc - перисто-кучевые, Ac - высококучевые, As - высокослоистые, Sc - слоисто-кучевые, Ns - слоисто-дождевые, Cu - кучевые, Cb - кучево-дождевые. Подробнее классификацию облаков см. в Атласе облаков (PDF).
T - Температура воздуха - температура, измеренная на высоте 2 м над землей.
Td - Температура точки росы - температура, при понижении до которой содержащийся в воздухе водяной пар достигнет насыщения.
f - Относительная влажность воздуха - влажноcть воздуха, измеренная на высоте 2 м над землей.
Te - Эффективная температура - температура, которую ощущает одетый по сезону человек в тени. Характеристика душности погоды. При расчете учитывается влияние влажности воздуха и скорости ветра на теплоощущения человека.
Tes - Эффективная температура на солнце - температура, которую ощущает человек, с поправкой на солнечный нагрев. Характеристика знойности погоды. Зависит от высоты солнца над горизонтом, облачности и скорости ветра. Ночью, в пасмурную погоду, а также при ветре 12 м/с и более поправка равна нулю.
P - Атмосферное давление - приведенное к уровню моря атмосферное давление.
Po - Атмосферное давление - измеренное на уровне метеостанции атмосферное давление.
Tmin - Минимальная температура - минимум температуры воздуха на высоте 2 м над землей.
Tmax - Максимальная температура - максимум температуры воздуха на высоте 2 м над землей.
R - Количество осадков - Количество выпавших осадков за период времени, мм. При наведении курсора мыши на число - период времени, за который выпало указанное количество осадков.
R24 - Количество осадков - Количество выпавших осадков за 24 часа, мм.
S - Снежный покров - Высота снежного покрова, см. При наведении курсора мыши на число - состояние снежного покрова и степень покрытия местности в баллах.